Regional Weather Roundup
Issued by NWS

Home | Current Version | Previous Version | Graphics & Text | Print | Product List | Glossary On
Versions: 1 2 3 4 5 6 7 8 9 10 11 12 13 14 15 16 17 18 19 20 21 22 23 24 25 26 27 28 29 30 31 32 33 34 35 36 37 38 39 40 41 42 43 44 45 46 47 48 49 50
000
ASUS45 KCYS 060010
RWRWY

WYOMING REGIONAL WEATHER ROUNDUP
NATIONAL WEATHER SERVICE CHEYENNE WY
500 PM MST THU MAR 05 2015

NOTE:  "FAIR" INDICATES FEW OR NO CLOUDS BELOW 12,000 FEET
WITH NO SIGNIFICANT WEATHER AND/OR OBSTRUCTIONS TO VISIBILITY.

WYZ001-060100-
YELLOWSTONE NATIONAL PARK

CITY           SKY/WX    TMP DP  RH WIND       PRES   REMARKS
LK YELLOWSTONE   N/A     30   3  31 VRB3      30.29R
6HR MIN TEMP:  13; 6HR MAX TEMP:  33;

W YELLOWSTONE  NOT AVBL

$$
WYZ002>013-054>058-071-098>099-060100-
NORTHERN WYOMING

CITY           SKY/WX    TMP DP  RH WIND       PRES   REMARKS
JACKSON        SUNNY     28  16  59 CALM      30.31R
CODY           CLOUDY    39  19  45 E8        30.16R WCI  34
GREYBULL       FAIR      39  14  36 SE7       30.20R WCI  34
6HR MIN TEMP:  29; 6HR MAX TEMP:  42;

WORLAND        FAIR      41  12  30 E6        30.20R
6HR MIN TEMP:  28; 6HR MAX TEMP:  42;

SHERIDAN       FAIR      36  22  56 SW6       30.14S WCI  31
6HR MIN TEMP:  35; 6HR MAX TEMP:  43;

BUFFALO        FAIR      39  11  31 SW5       30.16R
GILLETTE       FAIR      40  17  39 NW10      30.13R WCI  33
6HR MIN TEMP:  35; 6HR MAX TEMP:  43;

HULETT         FAIR      41  16  36 W8        30.13R
NEWCASTLE      FAIR      41  12  30 NW14      30.15S

$$
WYZ014>020-022>026-101>103-060100-
CENTRAL WYOMING

CITY           SKY/WX    TMP DP  RH WIND       PRES   REMARKS
BIG PINEY      FAIR      38   8  29 N17       30.28R WCI  28
6HR MIN TEMP:  30; 6HR MAX TEMP:  41;

PINEDALE       FAIR      32  12  43 W18       30.27S WCI  20
DUBOIS         FAIR      32  10  40 NW18G25   30.20R WCI  20
LANDER         FAIR      25  14  63 CALM      30.20R
6HR MIN TEMP:  13; 6HR MAX TEMP:  26;

RIVERTON       FAIR      23  11  60 CALM      30.22R
6HR MIN TEMP:   8; 6HR MAX TEMP:  23;

CASPER         FAIR      31  19  61 SW13      30.20R WCI  21
6HR MIN TEMP:  25; 6HR MAX TEMP:  33;

DOUGLAS        FAIR      34  21  59 NW10      30.19R WCI  26
6HR MIN TEMP:  29; 6HR MAX TEMP:  36;


$$
WYZ021-027>030-104>119-060100-
SOUTHERN WYOMING

CITY           SKY/WX    TMP DP  RH WIND       PRES   REMARKS
EVANSTON       FAIR      34  17  50 SW14      30.36R WCI  25
6HR MIN TEMP:  27; 6HR MAX TEMP:  35;

KEMMERER       FAIR      36  12  38 W18G24    30.32S WCI  25
FORT BRIDGER   FAIR      35  19  53 W18       30.37R WCI  24
ROCK SPRINGS   FAIR      32  20  61 SW17      30.28S WCI  21
6HR MIN TEMP:  27; 6HR MAX TEMP:  36;

DIXON          FAIR      35  16  47 S6        30.35S WCI  29
RAWLINS        FAIR      31  17  56 SW18G26   30.25R WCI  19
6HR MIN TEMP:  24; 6HR MAX TEMP:  32;

SARATOGA       FAIR      30  19  64 SW12      30.28S WCI  21
LARAMIE        FAIR      31  13  47 W15       30.20R WCI  20
6HR MIN TEMP:  29; 6HR MAX TEMP:  34;

CHEYENNE       FAIR      37  16  42 NW8       30.18R WCI  31
6HR MIN TEMP:  36; 6HR MAX TEMP:  41;

TORRINGTON     FAIR      43  16  33 W13       30.19R
6HR MIN TEMP:  37; 6HR MAX TEMP:  45;

PINE BLUFFS    FAIR      37  18  44 NW17G24   30.20S WCI  28

$$


USA.gov is the U.S. government's official web portal to all federal, state and local government web resources and services.